This is the latest recevied weather packets stored in our database for station/object DB0DUS-10. If no packets are shown the sender has not sent any weather packets the latest 10 day(s).
| Time | Temp. | Humidity | Pressure | Rain* | Wind** | Luminosity | Snow |
|---|---|---|---|---|---|---|---|
| 1777597693 | 13.33° C | 44% | 1026.8 hPa | 0 mm | - | - | - |
| 1777597094 | 13.89° C | 44% | 1026.8 hPa | 0 mm | - | - | - |
| 1777595893 | 13.89° C | 43% | 1026.9 hPa | 0 mm | - | - | - |
| 1777595594 | 13.89° C | 44% | 1026.8 hPa | 0 mm | - | - | - |
| 1777594093 | 13.89° C | 44% | 1026.7 hPa | 0 mm | - | - | - |
| 1777592594 | 13.33° C | 44% | 1026.8 hPa | 0 mm | - | - | - |
| 1777592293 | 13.33° C | 44% | 1026.9 hPa | 0 mm | - | - | - |
| 1777591094 | 13.89° C | 43% | 1027 hPa | 0 mm | - | - | - |
| 1777590493 | 13.89° C | 43% | 1027 hPa | 0 mm | - | - | - |
| 1777589594 | 13.89° C | 42% | 1027 hPa | 0 mm | - | - | - |
| 1777588693 | 14.44° C | 41% | 1027.1 hPa | 0 mm | - | - | - |
| 1777588094 | 14.44° C | 40% | 1027 hPa | 0 mm | - | - | - |
| 1777586893 | 14.44° C | 39% | 1027.1 hPa | 0 mm | - | - | - |
| 1777586594 | 14.44° C | 38% | 1027 hPa | 0 mm | - | - | - |
| 1777585093 | 14.44° C | 38% | 1027.2 hPa | 0 mm | - | - | - |
| 1777583293 | 15° C | 37% | 1027.2 hPa | 0 mm | - | - | - |
| 1777582094 | 15.56° C | 35% | 1026.9 hPa | 0 mm | - | - | - |
| 1777581493 | 15.56° C | 35% | 1027 hPa | 0 mm | - | - | - |
| 1777580594 | 16.11° C | 34% | 1027 hPa | 0 mm | - | - | - |
| 1777579693 | 16.11° C | 33% | 1026.9 hPa | 0 mm | - | - | - |
| 1777579094 | 16.67° C | 32% | 1026.8 hPa | 0 mm | - | - | - |
| 1777577893 | 17.22° C | 31% | 1026.6 hPa | 0 mm | - | - | - |
| 1777577594 | 17.22° C | 30% | 1026.5 hPa | 0 mm | - | - | - |
| 1777576093 | 18.33° C | 28% | 1026.3 hPa | 0 mm | - | - | - |
| 1777574594 | 19.44° C | 26% | 1026.1 hPa | 0 mm | - | - | - |
* Rain latest hour (hover to see other rain measurements)
** Current wind speed in m/s (hover to see current wind gust speed)